Theta_e
315 315 315 315 315 316 314 313 317 318 320 324 325 322 320 322 321 321 320 324 325 321 311 313 313 314 314 312 311 310 315 316 316 318 321 314 317 314 318 329 326 327 326 327 332
313 315 315 315 315 316 315 313 318 319 318 324 324 321 321 321 317 314 323 324 326 327 320 314 314 317 315 313 312 313 314 315 314 313 315 314 316 315 325 328 329 330 327 329 330
310 313 314 313 312 315 314 313 315 320 317 324 324 319 319 320 315 316 320 321 325 328 331 319 316 316 321 317 312 312 314 312 313 313 312 314 313 314 325 329 325 330 329 329 328
310 310 311 311 311 314 315 314 313 319 317 323 324 321 321 321 326 315 317 319 323 325 330 320 318 320 323 324 316 314 312 311 311 312 311 313 311 315 322 323 319 324 328 329 331
308 310 310 310 310 312 315 314 313 318 317 323 323 322 320 321 324 313 315 319 318 316 325 319 320 321 325 325 318 313 311 310 310 311 311 309 312 315 317 312 319 327 329 329 330
308 308 310 310 309 309 314 314 313 314 318 323 322 322 321 324 320 317 314 318 317 312 314 319 320 320 322 318 318 315 310 310 311 311 309 311 310 314 313 323 326 329 329 329 330
308 306 307 309 309 309 311 313 314 313 318 322 323 321 322 323 319 320 317 316 318 313 312 316 320 323 324 324 317 317 312 311 310 311 311 310 312 311 312 325 328 328 329 330 329
307 306 305 307 308 309 309 312 313 312 318 321 323 320 322 316 318 314 314 316 317 310 312 312 319 316 319 318 316 316 320 332 312 310 310 311 316 311 314 325 328 327 327 330 328
306 305 306 308 307 309 309 311 314 314 319 320 318 318 318 314 315 312 313 315 310 309 311 311 311 311 309 310 311 311 324 322 315 308 310 311 315 310 313 322 324 327 327 328 329
305 303 305 307 306 307 309 311 313 312 319 316 314 316 312 316 313 312 311 315 310 308 308 309 308 307 306 316 328 311 312 312 319 310 309 311 311 309 309 320 320 326 326 327 328
304 305 306 307 306 306 309 312 314 318 314 316 314 315 311 312 315 312 311 311 311 309 310 307 311 314 308 312 311 309 310 310 309 308 310 310 311 310 306 311 317 318 324 326 327
304 305 306 307 307 308 308 312 310 315 319 312 312 310 310 312 312 311 312 312 312 313 308 308 312 309 306 307 310 309 310 310 308 308 309 309 310 309 306 306 307 311 315 323 323
305 305 306 306 305 307 308 309 311 314 317 313 312 311 311 310 312 311 311 310 311 310 311 310 308 306 307 306 308 309 312 309 312 308 307 308 309 309 306 305 304 304 308 311 319
305 305 305 304 306 307 308 308 307 311 319 316 313 313 311 310 312 309 310 310 310 311 310 308 306 307 307 306 306 308 306 308 308 310 315 306 313 309 308 307 305 305 302 306 307
304 304 304 305 306 306 306 306 307 312 324 315 313 312 311 314 310 310 308 307 312 308 308 310 307 307 308 307 306 308 305 306 307 307 306 306 308 307 306 307 305 306 305 304 304
304 303 304 305 306 307 309 305 312 317 319 313 313 315 314 311 311 310 309 305 305 308 307 306 305 307 307 305 306 303 304 303 301 303 308 307 307 308 306 306 307 304 305 306 306
304 303 304 304 304 305 306 311 312 317 309 310 315 315 315 312 312 310 310 308 310 312 313 307 306 305 305 305 305 305 307 308 309 309 310 302 304 312 307 303 304 306 306 305 304
303 302 303 303 304 305 305 304 314 314 314 310 313 315 317 312 312 310 310 310 308 308 312 311 310 305 304 306 305 305 307 309 311 310 308 302 306 308 304 303 301 301 301 301 300
302 303 302 302 302 304 305 306 314 313 311 314 315 317 317 315 312 311 311 311 309 306 314 312 310 305 305 304 307 305 307 305 305 296 306 305 303 303 303 303 302 301 301 300 300
302 301 301 301 301 303 305 310 312 310 310 315 318 316 317 315 313 312 313 311 310 306 305 307 309 305 306 305 305 306 305 308 306 307 307 305 305 307 307 306 302 303 301 299 299
300 301 301 301 303 304 305 307 311 307 312 316 316 314 316 315 313 312 312 309 309 308 304 305 308 307 306 308 307 306 305 305 306 306 309 305 306 301 304 304 304 303 300 301 300
301 300 303 303 305 303 304 306 309 308 308 306 308 309 316 316 314 312 311 311 308 307 308 305 308 310 308 305 304 305 306 307 309 307 304 306 307 302 301 300 300 300 299 298 300
300 300 302 305 305 306 306 307 309 309 309 307 308 307 312 315 317 314 313 309 309 309 309 306 308 309 309 307 307 305 304 305 304 305 306 309 309 301 299 301 302 302 300 299 302
300 302 301 304 305 306 307 309 310 309 307 305 305 309 313 313 308 316 313 310 311 310 311 309 308 310 310 309 307 308 306 304 307 308 307 308 308 305 305 305 305 304 303 301 301
296 301 300 303 302 306 306 309 310 310 308 305 305 310 311 311 307 310 307 307 311 312 309 309 312 309 305 306 308 308 307 306 308 309 309 309 308 306 305 302 306 304 304 303 302
297 298 297 303 305 306 308 310 310 309 307 307 307 308 308 309 311 308 305 307 313 307 310 305 309 305 303 305 307 308 307 306 307 308 308 308 306 305 302 301 302 302 303 303 302
294 293 299 305 304 306 309 309 310 308 306 307 305 306 306 305 304 304 305 305 307 308 307 307 303 307 306 303 307 309 307 307 307 306 308 308 308 302 302 301 301 302 300 302 301
Wind_Speed
22 23 21 22 23 25 24 19 23 21 22 22 23 29 24 16 18 18 11 15 17 13 7 7 4 5 4 3 3 3 4 4 5 6 3 5 4 1 2 6 2 2 4 1 25
18 24 22 22 22 27 26 24 22 23 24 24 25 33 22 17 10 11 21 24 21 16 12 4 3 3 3 2 2 3 4 9 5 5 4 6 4 8 5 4 2 2 5 15 29
16 21 24 22 24 26 26 28 21 25 23 28 26 37 27 14 4 7 30 15 22 18 23 14 4 3 3 2 3 4 5 5 2 3 3 7 3 3 9 2 7 10 10 19 23
15 16 20 23 21 26 27 25 26 24 22 31 26 30 29 23 10 5 13 24 20 22 20 13 6 4 3 3 2 3 3 6 5 3 4 6 7 5 6 6 2 7 19 22 19
17 14 16 19 18 18 27 28 24 21 23 35 29 37 27 6 6 6 6 25 23 21 23 11 8 5 3 3 2 2 4 4 3 2 4 7 5 5 7 3 3 14 17 19 22
18 16 14 15 17 17 20 25 26 23 24 40 41 34 8 15 8 9 5 17 24 28 19 22 11 8 6 2 4 4 4 3 1 3 3 6 2 4 3 5 6 12 16 16 21
19 19 16 14 17 19 21 25 20 29 28 35 43 33 11 10 7 9 14 3 23 31 17 17 25 8 11 4 6 1 4 1 1 3 2 5 3 8 4 6 7 7 8 13 17
20 22 20 18 16 18 21 24 25 26 30 40 45 26 5 8 10 8 7 11 18 16 22 14 26 5 6 9 2 4 3 2 2 5 2 2 8 5 7 10 10 9 7 12 15
22 21 20 18 17 17 17 22 20 17 26 39 23 11 4 10 12 10 7 11 0 7 17 17 11 5 4 8 4 6 3 4 2 6 4 5 7 4 6 7 8 8 9 11 9
23 22 20 18 17 16 16 21 19 21 36 21 12 7 9 9 15 17 10 15 8 4 5 5 4 4 3 6 9 6 4 3 5 5 3 4 7 2 4 6 8 9 9 10 11
22 19 19 18 17 14 13 8 5 9 16 9 13 4 14 13 17 11 15 13 5 2 6 5 7 14 8 7 6 7 6 5 2 1 4 6 7 10 4 4 7 8 8 10 14
23 19 18 16 15 13 15 4 16 5 11 1 17 6 15 22 8 9 24 6 5 5 5 6 15 6 8 8 9 7 6 4 1 1 4 4 11 8 7 6 9 11 8 13 6
23 20 17 14 11 12 14 19 17 15 4 3 10 6 12 10 9 18 13 11 7 5 7 7 8 9 7 5 9 3 7 5 4 2 1 1 7 7 6 5 4 7 6 7 14
21 18 17 14 7 11 9 21 33 28 6 10 10 5 7 14 6 17 21 10 6 14 6 4 3 11 8 6 6 5 5 5 5 4 4 2 5 7 7 10 7 11 9 14 15
22 17 17 21 5 8 11 19 29 9 9 15 11 15 9 19 19 7 13 5 16 13 8 7 7 9 5 8 7 4 5 7 3 3 1 1 2 6 4 8 8 13 12 13 14
23 18 17 16 21 12 6 20 13 7 7 6 10 12 19 9 10 7 8 5 7 5 6 4 2 5 8 4 6 10 7 7 5 3 4 6 5 4 5 9 7 8 11 15 15
24 19 21 15 6 13 17 8 5 6 6 7 11 20 23 19 9 21 24 14 8 7 5 1 2 0 4 7 4 4 7 2 0 1 5 2 3 12 6 7 7 11 13 14 11
23 17 17 18 16 6 5 0 8 4 8 5 14 26 14 26 17 20 17 12 3 7 14 10 6 7 4 7 8 6 8 5 7 4 3 2 7 6 8 9 7 9 7 4 8
19 15 11 16 16 17 4 5 4 5 7 13 21 24 11 14 12 17 19 23 8 14 11 10 7 1 1 4 10 5 5 7 6 2 3 5 6 9 7 10 10 10 4 9 7
16 7 8 17 15 13 5 5 6 4 8 20 12 8 16 12 17 15 23 18 12 13 5 9 4 2 4 5 4 8 10 4 2 3 4 3 4 6 4 12 5 5 8 7 7
12 3 7 22 21 4 7 7 5 4 14 14 12 7 10 22 20 26 35 15 17 12 4 7 5 3 5 7 10 4 5 2 5 4 4 1 5 7 7 5 7 7 7 8 9
5 3 2 32 7 3 13 5 4 8 9 4 5 4 24 24 14 15 20 4 16 12 8 3 6 5 7 1 5 6 8 8 6 3 2 3 6 2 6 8 6 10 8 7 6
5 2 3 24 8 8 5 14 4 9 11 6 5 2 16 17 9 10 8 11 23 15 14 7 3 5 4 4 3 6 2 6 6 3 7 5 7 3 5 6 5 7 6 2 2
3 4 2 6 8 12 14 8 6 15 5 2 7 12 15 11 5 17 10 7 13 7 11 6 4 6 10 7 8 6 10 7 9 5 5 14 12 8 7 4 2 3 4 1 3
2 4 2 4 9 15 16 13 14 9 11 6 4 18 16 8 4 8 6 5 8 12 6 6 6 2 3 3 6 6 13 12 16 19 13 35 17 15 12 5 2 1 1 3 6
5 4 2 1 7 21 18 14 21 15 12 14 15 26 18 13 18 12 10 6 8 4 9 3 4 5 2 4 4 4 9 17 24 24 22 18 19 7 9 8 5 5 6 7 7
2 2 1 4 6 9 15 15 21 23 11 21 14 10 11 7 10 12 8 8 12 11 6 6 5 4 5 1 6 3 22 22 19 15 26 18 20 5 4 7 7 10 9 9 9
Wind_Direction
249 247 251 258 259 251 249 258 254 239 239 223 220 205 189 191 194 204 218 210 202 186 168 150 138 124 112 93 85 130 82 178 201 161 215 158 143 73 126 112 68 115 144 236 160
256 246 247 255 260 250 249 244 251 235 237 223 207 201 188 195 182 225 211 209 187 188 170 60 54 57 71 75 55 102 136 208 193 184 188 178 174 157 141 114 173 120 53 138 152
264 245 244 259 263 254 240 239 257 235 232 231 210 197 201 183 195 222 215 203 208 193 205 144 76 30 102 107 183 176 181 194 189 194 153 158 152 168 123 220 209 186 158 159 160
261 250 252 248 262 255 232 233 243 235 227 217 193 187 188 189 204 143 200 207 193 182 166 124 57 42 60 178 158 167 203 167 170 143 125 160 136 187 201 210 219 165 155 165 171
252 252 250 246 256 265 233 233 236 239 226 214 179 186 183 215 201 163 146 189 185 166 154 136 137 140 137 326 189 199 194 185 166 178 157 132 175 190 221 336 53 134 158 178 183
247 242 249 253 257 265 254 226 230 238 227 204 191 183 177 209 199 183 217 177 185 175 165 152 164 145 120 220 262 207 163 153 183 136 126 136 157 153 200 135 122 152 174 183 188
237 245 246 253 257 249 255 247 230 236 228 208 191 178 204 196 177 190 215 117 192 185 170 179 149 165 140 129 263 151 147 87 186 169 177 152 149 225 138 141 152 175 175 184 195
233 239 242 247 254 253 244 242 232 248 229 205 189 172 173 172 153 161 181 199 197 202 189 167 167 125 141 139 44 118 64 113 283 153 209 140 258 198 172 159 176 181 181 190 200
226 230 234 239 248 246 252 248 234 256 214 166 158 160 157 146 152 156 124 155 300 200 164 156 150 151 131 125 103 27 168 174 238 208 151 162 248 210 172 181 185 185 190 198 200
225 234 231 232 242 244 250 244 241 271 171 156 143 123 155 192 157 145 98 138 66 270 108 122 127 135 133 163 178 151 167 242 198 214 147 184 253 253 189 194 199 194 198 203 206
222 228 225 226 237 251 240 229 207 218 167 179 176 178 145 145 129 129 108 90 41 221 182 156 167 196 172 163 152 131 123 160 199 117 153 218 248 238 189 199 218 222 210 210 217
215 223 220 227 237 246 232 237 223 298 164 202 162 101 152 144 117 129 129 102 125 206 333 124 204 185 128 124 116 125 138 163 139 170 165 202 254 246 198 222 204 207 215 224 196
209 211 212 223 237 243 224 234 251 199 148 157 190 160 162 135 128 158 147 119 128 178 246 175 178 149 132 138 129 119 155 176 178 124 98 22 278 263 230 243 211 234 207 206 214
200 207 208 209 223 219 219 244 246 248 185 152 182 189 135 117 78 154 160 131 152 187 226 188 150 143 134 147 114 130 186 135 142 119 228 92 278 260 223 225 208 225 210 221 218
195 199 201 198 180 177 195 239 253 223 200 149 158 148 177 156 131 189 187 121 164 159 163 205 139 126 119 154 136 198 125 141 107 105 31 6 283 264 187 236 220 233 223 229 224
194 197 197 216 233 210 207 215 196 218 199 143 131 161 165 161 156 123 148 92 130 79 50 39 37 145 157 104 136 156 86 55 55 79 275 218 190 252 201 206 223 217 226 229 227
193 201 196 201 230 242 248 212 200 242 132 165 145 154 165 161 129 163 159 156 152 128 148 150 299 319 127 94 57 123 119 54 33 271 225 25 221 246 245 215 223 227 226 223 227
189 196 204 213 220 180 172 334 239 152 154 154 153 153 173 157 161 171 155 157 115 90 141 167 191 179 202 158 155 177 147 157 185 195 239 53 233 246 234 276 272 266 245 256 227
181 200 212 225 214 212 155 205 261 173 150 138 143 158 146 151 138 159 185 180 173 168 145 180 201 110 142 139 153 185 184 150 107 28 61 218 295 294 282 272 246 247 258 247 256
163 171 233 221 209 192 239 219 229 206 131 146 148 168 154 152 143 165 180 195 178 197 128 175 122 224 168 97 25 166 151 163 20 155 240 273 277 235 265 237 357 334 258 261 244
137 154 249 195 167 173 228 206 241 266 153 169 145 128 154 161 166 170 182 183 174 162 109 142 113 171 148 198 168 137 184 136 133 167 173 242 262 221 240 266 263 269 253 252 231
143 168 269 152 168 170 219 216 186 208 230 140 106 87 168 171 164 178 182 151 171 147 157 157 117 133 192 231 200 175 179 180 186 197 90 118 270 190 239 261 252 273 288 280 245
138 154 282 167 185 188 184 218 229 213 206 160 131 160 164 163 146 184 129 187 173 162 164 173 61 95 38 5 20 221 182 125 100 75 190 154 246 156 242 256 261 260 290 267 129
116 162 256 203 216 181 186 190 212 198 243 202 126 126 138 160 18 182 148 167 181 142 143 108 111 156 190 215 134 164 180 174 167 190 163 234 241 266 267 247 12 350 35 295 193
133 197 171 190 231 211 178 180 191 186 238 196 74 154 156 155 118 151 141 124 167 183 149 132 141 228 29 93 135 154 169 167 195 220 196 242 237 219 240 270 189 82 155 220 218
147 176 174 236 166 193 193 184 186 194 171 203 175 172 167 157 189 170 135 138 154 112 178 357 165 135 37 8 94 146 171 184 208 217 233 241 265 158 211 208 246 247 229 230 225
148 96 106 195 153 181 187 184 198 182 233 203 150 148 180 173 134 139 142 149 140 149 151 129 121 118 235 9 84 344 204 193 215 213 223 229 242 177 188 217 216 224 212 223 223